Regional Weather Roundup
Issued by NWS

Home | Current Version | Previous Version | Text Only | Print | Product List | Glossary On
Versions: 1 2 3 4 5 6 7 8 9 10 11 12 13 14 15 16 17 18 19 20 21 22 23 24 25 26 27 28 29 30 31 32 33 34 35 36 37 38 39 40 41 42 43 44 45 46 47 48 49 50
000
ASUS43 KMKX 291900
RWRWI

WISCONSIN REGIONAL WEATHER ROUNDUP
NATIONAL WEATHER SERVICE MILWAUKEE/SULLIVAN WI
200 PM CDT WED JUL 29 2015

NOTE: "FAIR" INDICATES FEW OR NO CLOUDS BELOW 12,000 FEET WITH NO
SIGNIFICANT WEATHER AND/OR OBSTRUCTIONS TO VISIBILITY.

WIZ001-002-006>008-014>016-023>028-292000-
NORTHWEST WISCONSIN

CITY           SKY/WX    TMP DP  RH WIND       PRES   REMARKS
SUPERIOR ARPT  CLOUDY    71  57  62 W10G18    29.79R
ASHLAND        CLOUDY    70  56  61 SW14G23   29.80R
HAYWARD        PTSUNNY   74  53  48 W18G28    29.86S
SIREN          PTSUNNY   77  54  45 W18G28    29.87R
CUMBERLAND     MOSUNNY   73  52  46 W28       29.89S
RICE LAKE      MOSUNNY   75  56  51 W17G24    29.91S
CHETEK         MOSUNNY  N/A N/A N/A W16G29    29.90S
LADYSMITH      MOSUNNY   77  55  46 W21G26    29.90R
EAU CLAIRE     SUNNY     81  52  36 W26G40    29.91R HX  80
MENOMONIE      SUNNY     80  51  36 W17G39    29.92R
NEW RICHMOND   SUNNY     78  51  38 W23G33    29.93R
OSCEOLA        SUNNY     78  54  42 W25G33    29.94S
$$

WIZ003>005-009-010-017-018-292000-
NORTH CENTRAL WISCONSIN

CITY           SKY/WX    TMP DP  RH WIND       PRES   REMARKS
MANITOWISH WTR CLOUDY    72  54  53 W21G36    29.84R
ARBOR VITAE    MOSUNNY   77  56  49 W17G28    29.84R
WOODRUFF       MOSUNNY   77  56  49 W17G28    29.84R
RHINELANDER    MOSUNNY   80  53  39 W25G33    29.86R HX  80
EAGLE RIVER    MOSUNNY   76  49  37 W26G33    29.82S
LAND O LAKES   MOSUNNY   76  50  40 W17G29    29.83R
PHILLIPS       PTSUNNY   75  55  50 W12G25    29.86R
TOMAHAWK       SUNNY     76  51  42 W22G32    29.87R
MEDFORD        SUNNY     77  53  42 W18G38    29.89R
MERRILL        NOT AVBL
$$

WIZ029-030-035-036-043>047-292000-
CENTRAL WISCONSIN

CITY           SKY/WX    TMP DP  RH WIND       PRES   REMARKS
WAUSAU         SUNNY     82  48  30 W35G46    29.87S HX  81
MOSINEE        SUNNY     81  50  34 W21G32    29.90S HX  80
MARSHFIELD     SUNNY     81  50  33 W21G32    29.91S HX  80
STEVENS POINT  SUNNY     80  48  33 W21G26    29.90F
WAUPACA        SUNNY     85  47  26 W15G24    29.90S HX  83
WAUTOMA        NOT AVBL
WISC RAPIDS    SUNNY     85  47  26 W15G31    29.93S HX  82
CAMP DOUGLAS   NOT AVBL
$$

WIZ011>013-019>022-031-037>040-048>050-292000-
NORTHEAST WISCONSIN

CITY           SKY/WX    TMP DP  RH WIND       PRES   REMARKS
ANTIGO         SUNNY     79  52  38 W23G29    29.87R
SHAWANO        SUNNY     83  49  30 W22G32    29.86F HX  81
OCONTO         SUNNY     83  52  34 W22G28    29.82F HX  82
STURGEON BAY   SUNNY     82  52  34 SW23G33   29.85F HX  81
GREEN BAY      SUNNY     84  53  34 W16G26    29.87S HX  82
MANITOWOC      NOT AVBL
APPLETON       MOSUNNY   82  46  28 W16G29    29.90F HX  81
CLINTONVILLE   SUNNY     82  45  26 W20G25    29.86F HX  80
OSHKOSH        SUNNY     83  50  31 W14G23    29.91S HX  81
$$

WIZ032>034-041-042-053>061-292000-
SOUTHWEST WISCONSIN

CITY           SKY/WX    TMP DP  RH WIND       PRES   REMARKS
LA CROSSE      SUNNY     84  53  34 W20G32    29.96S HX  82
SPARTA         SUNNY     82  48  30 W15G23    29.96S HX  80
VIROQUA        SUNNY     79  52  38 W16G31    30.02S
BOSCOBEL       SUNNY     85  53  33 W18G28    30.01R HX  83
PRAIRIE DU CHI SUNNY     83  47  29 W17G26    30.01S HX  81
PLATTEVILLE    MOSUNNY   79  53  40 W14G21    30.04S
$$

WIZ056-057-062-063-064-067-068-292000-
SOUTH CENTRAL WISCONSIN

CITY           SKY/WX    TMP DP  RH WIND       PRES   REMARKS
REEDSBURG      SUNNY     83  51  32 W20G26    29.97S HX  82
BARABOO/DELLS  SUNNY     83  44  25 W16G24    29.97S HX  81
LONE ROCK      NOT AVBL
MINERAL POINT  SUNNY     81  46  30 NW13G21   30.03S HX  80
MADISON        MOSUNNY   83  51  33 W8G17     29.98S HX  81
MIDDLETON      SUNNY     83  44  25 NW15G24   30.00S HX  81
WATERTOWN      SUNNY     82  56  41 W16       29.97S HX  81
MONROE         SUNNY     81  50  34 W13G23    30.03R HX  80
JANESVILLE     SUNNY     84  50  30 W12G17    30.00S HX  82
$$

WIZ051-052-058>065-066-070>072-292000-
SOUTHEAST WISCONSIN

CITY           SKY/WX    TMP DP  RH WIND       PRES   REMARKS
MILWAUKEE      MOSUNNY   85  46  25 W17G28    29.96S HX  82
WAUKESHA       SUNNY     81  50  34 W14G25    29.98S HX  80
MILWAUKEE/TIMM SUNNY     84  46  26 W17G23    29.96F HX  82
RACINE         SUNNY     85  53  33 W10       29.98F HX  83
BURLINGTON     SUNNY     82  49  32 W10G20    29.99S HX  80
KENOSHA        SUNNY     83  56  39 W14       29.98F HX  82
FOND DU LAC    SUNNY     84  52  33 W14G26    29.93S HX  82
SHEBOYGAN      SUNNY     84  53  34 W18G25    29.91S HX  82
WEST BEND      SUNNY     81  46  30 SW14G26   29.95S HX  80
JUNEAU         SUNNY     80  54  40 W17       29.97S HX  80
$$

LSZ147-162-292000-
LAKE SUPERIOR

STATION/POSITION TIME  TEMP    WIND        PRES    WAVE
                       AIR SEA DIR/SP/G            HT/PER
                 (UTC) (F)     (DEG/KT/KT) (MB)    (FT/S)
W MID LAKE BUOY  1750   64 57  240/ 23/ 27 1005.2R   7/ 7
DEVILS ISLAND    1800   67     240/ 30/ 35 1006.3R
PORT WING        1800   70     230/ 13/ 26 1008.1
SAXON HARBOR     1800   73                 1008.5R
$$

LMZ867-665-643>646-292000-
LAKE MICHIGAN

STATION/POSITION TIME  TEMP    WIND        PRES    WAVE
                       AIR SEA DIR/SP/G            HT/PER
                 (UTC) (F)     (DEG/KT/KT) (MB)    (FT/S)
CHAMBERS ISLAND  1800   80     220/  8/ 17 1009.1S
N MID LAKE BUOY  1750   73 70  210/ 17/ 19 1008.7F   2/ 4
NORTHPORT PIER   1800   80     200/  8/ 20 1009.1S
SISTER BAY       1814   81     240/ 17/ 25   N/A
ALGOMA LAKESHORE 1842          290/ 17/ 24   N/A
KEWAUNEE LAKESHO 1800   81                   N/A
SHEBOYGAN LAKESH 1800   81     240/ 16/ 21 1012.6F
PORT WASHINGTON  1840   85     270/ 13/ 17 1013.5F
ATWATER BUOY     1800   76     270/ 14/ 19 1015.5F
MILWAUKEE LAKESH 1800   81     280/ 10/ 17   N/A
KENOSHA   LAKESH 1800   82     270/ 17/ 22 1014.9R
$$

TC  - TEMPERATURE IN CELSIUS
VSB - VISIBILITY IN STATUTE MILES
WCI - WIND CHILL INDEX
HX  - HEAT INDEX



USA.gov is the U.S. government's official web portal to all federal, state and local government web resources and services.